Trieste, Italy

7:01 AM CET on January 22, 2017 (GMT +0100)
Trieste

Weather History for LIVT - February, 2014

Change the Weather History Date:

Friday, February 14, 2014

  Actual Average Record
Temperature  
Mean Temperature 50 °F -  
Max Temperature 56 °F 51 °F 56 °F (2014)
Min Temperature 44 °F 41 °F 28 °F (2003)
Degree Days  
Heating Degree Days 15    
Moisture  
Dew Point 43 °F    
Average Humidity 73    
Maximum Humidity 96    
Minimum Humidity 45    
Precipitation  
Precipitation 0.00 in 0.09 in - ()
Sea Level Pressure  
Sea Level Pressure 29.83 in    
Wind  
Wind Speed 4 mph ()    
Max Wind Speed 9 mph    
Max Gust Speed -    
Visibility 8.2 miles    
Events Rain    
Averages and records for this station are not official NWS values.
T = Trace of Precipitation, MM = Missing Value Source: Averaged Metar Reports

Daily Weather History Graph

Daily Weather History Graph

Search for Another Location

Airport or City:

Trip Planner

Search our weather history database for the weather conditions in past years. The results will help you decide how hot, cold, wet, or windy it might be!

Date:

Astronomy

Feb. 14, 2014 Rise Set
Actual Time 7:08 AM CET 5:30 PM CET
Civil Twilight 6:38 AM CET 6:00 PM CET
Nautical Twilight 6:03 AM CET 6:35 PM CET
Astronomical Twilight 5:29 AM CET 7:09 PM CET
Moon 5:19 PM CET (2/14) 6:25 AM CET (2/14)
Length of Visible Light 11h 22m
Length of Day
10h 21m
Full, 100% of the Moon is Illuminated
Feb 14
Full
Feb 15
Full
Feb 22
Last Quarter
Mar 1
New
Mar 8
First Quarter

Hourly Weather History & Observations

Time (CET) Temp. Windchill Dew Point Humidity Pressure Visibility Wind Dir Wind Speed Gust Speed Precip Events Conditions
12:00 AM 51 °F - 49 °F 90% 29.63 in 6 mi SSE 8.1 mph - - Rain Light Rain
12:55 AM 51.8 °F - 48.2 °F 88% 29.62 in 6.2 mi SE 9.2 mph - N/A   Scattered Clouds
1:00 AM 51 °F - 48 °F 84% 29.62 in 6 mi SE 9.2 mph - - Rain Light Rain
1:55 AM 50.0 °F - 48.2 °F 94% 29.62 in 6.2 mi East 3.5 mph - N/A   Scattered Clouds
2:00 AM 51 °F - 47 °F 83% 29.64 in 6 mi East 3.5 mph - -   Overcast
2:55 AM 48.2 °F - 46.4 °F 93% 29.62 in - ESE 2.3 mph - N/A   Clear
3:00 AM 48 °F - 47 °F 96% 29.63 in 6 mi ESE 2.3 mph - -   Partly Cloudy
3:55 AM 48.2 °F - 46.4 °F 93% 29.62 in 6.2 mi ENE 1.2 mph - N/A   Partly Cloudy
4:00 AM 48 °F - 47 °F 94% 29.65 in 6 mi ENE 1.2 mph - -   Overcast
4:55 AM 48.2 °F - 42.8 °F 82% 29.65 in 6.2 mi South 1.2 mph - N/A Rain Rain
5:00 AM 47 °F - 42 °F 76% 29.68 in 6 mi South 1.2 mph - - Rain Light Rain
5:55 AM 46.4 °F 43.5 °F 39.2 °F 76% 29.71 in 6.2 mi ENE 5.8 mph - N/A   Scattered Clouds
6:00 AM 47 °F - 40 °F 69% 29.72 in 6 mi ENE 5.8 mph - - Rain Light Rain
6:55 AM 46.4 °F 45.2 °F 39.2 °F 76% 29.74 in 6.2 mi SSE 3.5 mph - N/A Rain Rain
7:00 AM 47 °F - 40 °F 67% 29.75 in 12 mi SSE 3.5 mph - - Rain Light Rain
7:55 AM 46.4 °F 44.3 °F 37.4 °F 71% 29.77 in 6.2 mi NE 4.6 mph - N/A   Scattered Clouds
8:00 AM 47 °F - 38 °F 63% 29.78 in 12 mi NE 4.6 mph - - Rain Light Rain
8:55 AM 48.2 °F - 37.4 °F 66% 29.80 in - ENE 5.8 mph - N/A   Clear
9:00 AM 48 °F - 37 °F 56% 29.82 in 12 mi ENE 5.8 mph - -   Scattered Clouds
9:55 AM 53.6 °F - 37.4 °F 54% 29.83 in - NNW 1.2 mph - N/A   Clear
10:00 AM 53 °F - 38 °F 45% 29.85 in 12 mi NNW 1.2 mph - -   Scattered Clouds
10:55 AM 51.8 °F - 42.8 °F 71% 29.86 in - WNW 4.6 mph - N/A   Clear
11:00 AM 53 °F - 43 °F 61% 29.87 in 12 mi WNW 4.6 mph - -  
11:55 AM 53.6 °F - 44.6 °F 72% 29.86 in - WNW 2.3 mph - N/A   Clear
12:00 PM 53 °F - 44 °F 64% 29.88 in 12 mi WNW 2.3 mph - -  
12:55 PM 53.6 °F - 46.4 °F 77% 29.89 in 6.2 mi WNW 3.5 mph - N/A   Partly Cloudy
1:00 PM 54 °F - 46 °F 66% 29.89 in 12 mi WNW 3.5 mph - -   Partly Cloudy
1:55 PM 55.4 °F - 48.2 °F 77% 29.89 in 6.2 mi West 5.8 mph - N/A   Partly Cloudy
2:00 PM 55 °F - 48 °F 70% 29.89 in 12 mi West 5.8 mph - -   Scattered Clouds
2:55 PM 55.4 °F - 48.2 °F 77% 29.89 in 6.2 mi WNW 2.3 mph - N/A   Partly Cloudy
3:00 PM 56 °F - 49 °F 71% 29.91 in 12 mi WNW 2.3 mph - -   Scattered Clouds
3:55 PM 55.4 °F - 48.2 °F 77% 29.92 in 6.2 mi WNW 5.8 mph - N/A   Partly Cloudy
4:00 PM 55 °F - 48 °F 69% 29.92 in 12 mi WNW 5.8 mph - -   Scattered Clouds
4:55 PM 55.4 °F - 46.4 °F 72% 29.92 in 6.2 mi NNW 2.3 mph - N/A   Partly Cloudy
5:00 PM 55 °F - 46 °F 63% 29.92 in 12 mi NNW 2.3 mph - -   Scattered Clouds
5:55 PM 51.8 °F - 39.2 °F 62% 29.95 in - NE 4.6 mph - N/A   Clear
6:00 PM 52 °F - 39 °F 51% 29.95 in 12 mi NE 4.6 mph - -   Scattered Clouds
6:55 PM 50.0 °F - 35.6 °F 58% 29.95 in - ENE 4.6 mph - N/A   Clear
7:00 PM 50 °F - 36 °F 48% 29.97 in 12 mi ENE 4.6 mph - -  
7:55 PM 48.2 °F - 41.0 °F 76% 29.95 in - NNE 4.6 mph - N/A   Clear
8:00 PM 48 °F - 41 °F 69% 29.97 in 6 mi NNE 4.6 mph - -   Clear
8:55 PM 46.4 °F 44.3 °F 41.0 °F 81% 29.98 in - NE 4.6 mph - N/A   Clear
9:00 PM 47 °F - 41 °F 71% 29.99 in 6 mi NE 4.6 mph - -   Clear
9:55 PM 46.4 °F 45.2 °F 39.2 °F 76% 29.98 in - NE 3.5 mph - N/A   Clear
10:00 PM 46 °F - 39 °F 69% 29.99 in 6 mi NE 3.5 mph - -   Clear
10:55 PM 44.6 °F 40.7 °F 39.2 °F 81% 29.98 in - NE 6.9 mph - N/A   Clear
11:00 PM 45 °F - 38 °F 70% 29.99 in 6 mi NE 6.9 mph - -   Clear
11:55 PM 44.6 °F 40.7 °F 39.2 °F 81% 29.98 in - NE 6.9 mph - N/A   Clear